Location: Davidschlag
(48.4333°N, 14.2833°E)
Time: 03:56:45
(UTC+00:00)

MetOp-A - Pass Details

Date: 27 February 2020
Orbit: 819 x 821 km, 98.5° (Epoch: 09 April)

Event Time Altitude Azimuth Distance (km) Brightness Sun altitude
Exits shadow 18:46:48 42° 124° (SE) 1,156 4.4 -21.3°
Maximum altitude 18:48:21 58° 70° (ENE) 953 4.1 -21.5°
Drops below altitude 10° 18:53:37 10° 352° (N) 2,431 6.8 -22.4°
Sets 18:56:00 0° 349° (N) 3,368 7.6 -22.8°
